Hourly Weather Baronskaya

Today, 19 April, Monday

Time Temperature Precipitation Wind Pressure Humidity
00:00 -4°C° 0 mm 2 mps 753 mmHg 53%
01:00 -5°C° 0 mm 2 mps 754 mmHg 53%
02:00 -3°C° 0 mm 1 mps 754 mmHg 54%
03:00 -3°C° 0 mm 1 mps 754 mmHg 56%
04:00 -4°C° 0 mm 1 mps 755 mmHg 57%
05:00 -3°C° 0 mm 1 mps 755 mmHg 51%
06:00 -2°C° 0 mm 1 mps 755 mmHg 45%
07:00 -1°C° 0 mm 1 mps 755 mmHg 40%
08:00 0°C° 0 mm 1 mps 755 mmHg 36%
09:00 +1°C° 0 mm 1 mps 755 mmHg 32%
10:00 +3°C° 0 mm 1 mps 755 mmHg 28%
11:00 +3°C° 0 mm 1 mps 755 mmHg 28%
12:00 +4°C° 0 mm 1 mps 755 mmHg 28%
13:00 +5°C° 0 mm 1 mps 754 mmHg 27%
14:00 +5°C° 0 mm 1 mps 754 mmHg 28%
15:00 +5°C° 0 mm 1 mps 754 mmHg 29%
16:00 +6°C° 0 mm 1 mps 754 mmHg 29%
17:00 +4°C° 0 mm 1 mps 754 mmHg 36%
18:00 +3°C° 0 mm 1 mps 754 mmHg 42%
19:00 +2°C° 0 mm 1 mps 754 mmHg 48%
20:00 +1°C° 0 mm 1 mps 754 mmHg 51%
21:00 0°C° 0 mm 1 mps 754 mmHg 54%
22:00 -2°C° 0 mm 0 mps 754 mmHg 57%
23:00 -2°C° 0 mm 0 mps 754 mmHg 59%

Tomorrow, 20 April, Tuesday

Time Temperature Precipitation Wind Pressure Humidity
00:00 -2°C° 0 mm 0 mps 754 mmHg 60%
01:00 -2°C° 0 mm 0 mps 754 mmHg 61%
02:00 -1°C° 0 mm 1 mps 754 mmHg 62%
03:00 -1°C° 0 mm 1 mps 754 mmHg 63%
04:00 -1°C° 0 mm 1 mps 755 mmHg 64%
05:00 0°C° 0 mm 1 mps 755 mmHg 59%
06:00 -1°C° 0 mm 2 mps 754 mmHg 54%
07:00 0°C° 0 mm 3 mps 754 mmHg 49%
08:00 +1°C° 0 mm 3 mps 754 mmHg 44%
09:00 +2°C° 0 mm 3 mps 754 mmHg 39%
10:00 +3°C° 0 mm 4 mps 754 mmHg 34%
11:00 +4°C° 0 mm 4 mps 754 mmHg 34%
12:00 +5°C° 0 mm 4 mps 753 mmHg 34%
13:00 +6°C° 0 mm 4 mps 753 mmHg 33%
14:00 +6°C° 0 mm 4 mps 753 mmHg 35%
15:00 +6°C° 0 mm 4 mps 752 mmHg 36%
16:00 +6°C° 0 mm 4 mps 752 mmHg 37%
17:00 +5°C° 0 mm 3 mps 752 mmHg 43%
18:00 +4°C° 0 mm 3 mps 752 mmHg 50%
19:00 +4°C° 0 mm 2 mps 752 mmHg 56%
20:00 +3°C° 0 mm 2 mps 752 mmHg 61%
21:00 +2°C° 0 mm 2 mps 752 mmHg 66%
22:00 +2°C° 0 mm 1 mps 752 mmHg 71%
23:00 +1°C° 0 mm 1 mps 752 mmHg 71%

Day after tomorrow, 21 April, Wednesday

Time Temperature Precipitation Wind Pressure Humidity
00:00 +1°C° 0 mm 1 mps 752 mmHg 71%
01:00 +1°C° 0 mm 1 mps 752 mmHg 72%
02:00 +1°C° 0 mm 1 mps 752 mmHg 72%
03:00 +1°C° 0 mm 1 mps 753 mmHg 73%
04:00 +1°C° 0 mm 1 mps 753 mmHg 73%
05:00 +2°C° 0 mm 1 mps 753 mmHg 68%
06:00 +3°C° 0 mm 1 mps 753 mmHg 63%
07:00 +4°C° 0 mm 1 mps 753 mmHg 58%
08:00 +6°C° 0 mm 1 mps 753 mmHg 53%
09:00 +8°C° 0 mm 1 mps 753 mmHg 48%
10:00 +8°C° 0 mm 2 mps 753 mmHg 43%
11:00 +11°C° 0 mm 1 mps 753 mmHg 40%
12:00 +12°C° 0 mm 1 mps 753 mmHg 38%
13:00 +13°C° 0 mm 1 mps 752 mmHg 35%
14:00 +13°C° 0 mm 1 mps 752 mmHg 35%
15:00 +13°C° 0 mm 1 mps 752 mmHg 34%
16:00 +13°C° 0 mm 1 mps 752 mmHg 33%
17:00 +12°C° 0 mm 1 mps 752 mmHg 39%
18:00 +11°C° 0 mm 1 mps 752 mmHg 44%
19:00 +9°C° 0 mm 1 mps 752 mmHg 50%
20:00 +8°C° 0 mm 1 mps 753 mmHg 54%
21:00 +7°C° 0 mm 1 mps 753 mmHg 58%
22:00 +6°C° 0 mm 1 mps 753 mmHg 62%
23:00 +6°C° 0 mm 1 mps 753 mmHg 65%

22 April, Thursday

Time Temperature Precipitation Wind Pressure Humidity
00:00 +5°C° 0 mm 1 mps 753 mmHg 67%
01:00 +5°C° 0 mm 1 mps 753 mmHg 70%
02:00 +4°C° 0 mm 1 mps 753 mmHg 71%
03:00 +4°C° 0 mm 1 mps 753 mmHg 72%
04:00 +4°C° 0 mm 1 mps 753 mmHg 73%
05:00 +4°C° 0 mm 2 mps 753 mmHg 69%
06:00 +5°C° 0 mm 2 mps 753 mmHg 65%
07:00 +6°C° 0 mm 2 mps 753 mmHg 62%
08:00 +7°C° 0 mm 2 mps 753 mmHg 54%
09:00 +9°C° 0 mm 3 mps 753 mmHg 46%
10:00 +11°C° 0 mm 3 mps 753 mmHg 38%
11:00 +11°C° 0 mm 4 mps 753 mmHg 36%
12:00 +12°C° 0 mm 4 mps 753 mmHg 34%
13:00 +13°C° 0 mm 4 mps 753 mmHg 31%
14:00 +13°C° 0 mm 4 mps 753 mmHg 33%
15:00 +13°C° 0 mm 4 mps 753 mmHg 34%
16:00 +13°C° 0 mm 3 mps 752 mmHg 36%
17:00 +12°C° 0 mm 3 mps 753 mmHg 40%
18:00 +10°C° 0 mm 3 mps 753 mmHg 45%
19:00 +9°C° 0 mm 2 mps 753 mmHg 49%
20:00 +8°C° 0 mm 2 mps 753 mmHg 52%
21:00 +8°C° 0 mm 2 mps 753 mmHg 55%
22:00 +8°C° 0 mm 1 mps 753 mmHg 59%
23:00 +7°C° 0 mm 1 mps 753 mmHg 60%

23 April, Friday

Time Temperature Precipitation Wind Pressure Humidity
00:00 +7°C° 0 mm 1 mps 753 mmHg 62%
01:00 +7°C° 0 mm 1 mps 753 mmHg 63%
02:00 +7°C° 0 mm 1 mps 753 mmHg 65%
03:00 +6°C° 0 mm 1 mps 753 mmHg 68%
04:00 +6°C° 0 mm 1 mps 753 mmHg 70%
05:00 +7°C° 0 mm 1 mps 753 mmHg 68%
06:00 +7°C° 0 mm 1 mps 753 mmHg 66%
07:00 +8°C° 0 mm 1 mps 753 mmHg 64%
08:00 +8°C° 0 mm 2 mps 753 mmHg 59%
09:00 +9°C° 0 mm 2 mps 753 mmHg 53%
10:00 +12°C° 0 mm 2 mps 753 mmHg 48%
11:00 +11°C° 0 mm 3 mps 753 mmHg 47%
12:00 +11°C° 0 mm 3 mps 753 mmHg 47%
13:00 +12°C° 0 mm 3 mps 753 mmHg 46%
14:00 +11°C° 0 mm 3 mps 753 mmHg 52%
15:00 +10°C° 0 mm 3 mps 753 mmHg 58%
16:00 +10°C° 0 mm 3 mps 753 mmHg 64%
17:00 +9°C° 0 mm 2 mps 753 mmHg 70%
18:00 +9°C° 0 mm 1 mps 753 mmHg 75%
19:00 +8°C° 0 mm 1 mps 753 mmHg 81%
20:00 +7°C° 0 mm 0 mps 753 mmHg 83%
21:00 +7°C° 0 mm 0 mps 753 mmHg 85%
22:00 +7°C° 0 mm 0 mps 752 mmHg 87%
23:00 +7°C° 0 mm 1 mps 752 mmHg 88%

24 April, Saturday

Time Temperature Precipitation Wind Pressure Humidity
00:00 +7°C° 0 mm 1 mps 752 mmHg 90%
01:00 +6°C° 0 mm 1 mps 751 mmHg 91%
02:00 +7°C° 0 mm 1 mps 751 mmHg 90%
03:00 +7°C° 0 mm 1 mps 751 mmHg 90%
04:00 +7°C° 0 mm 1 mps 751 mmHg 89%
05:00 +7°C° 0.1 mm 1 mps 751 mmHg 87%
06:00 +7°C° 0.1 mm 1 mps 750 mmHg 86%
07:00 +8°C° 0.1 mm 1 mps 750 mmHg 85%
08:00 +9°C° 0.1 mm 1 mps 750 mmHg 78%
09:00 +9°C° 0.1 mm 2 mps 749 mmHg 70%
10:00 +11°C° 0.1 mm 3 mps 749 mmHg 63%
11:00 +11°C° 0 mm 3 mps 749 mmHg 57%
12:00 +12°C° 0 mm 3 mps 748 mmHg 51%
13:00 +13°C° 0 mm 3 mps 748 mmHg 45%
14:00 +13°C° 0.1 mm 3 mps 747 mmHg 47%
15:00 +13°C° 0.1 mm 3 mps 747 mmHg 49%
16:00 +12°C° 0.1 mm 3 mps 747 mmHg 50%
17:00 +12°C° 0 mm 2 mps 747 mmHg 53%
18:00 +10°C° 0 mm 2 mps 747 mmHg 57%
19:00 +10°C° 0 mm 1 mps 747 mmHg 60%
20:00 +10°C° 0 mm 1 mps 747 mmHg 62%
21:00 +9°C° 0 mm 1 mps 747 mmHg 65%
22:00 +8°C° 0 mm 1 mps 746 mmHg 68%
23:00 +8°C° 0 mm 1 mps 746 mmHg 71%
Show more